PAL1876 RPMZ-RPLL

Flight info

Callsign PAL1876
Flight time 1h 32m
Altitude 37000
Route BURCO1W BURCO W3 IOO/N0453F360 B472 IBAGO IBAGO3R
Aircraft A321/M-SDE3FGHIRWY/LB1

Departure

Time 2026-04-26 06:01
Airport Zamboanga International Airport (RPMZ)

Arrival

Time 2026-04-26 07:33
Airport Ninoy Aquino International Airport (RPLL)
Time Latitude Longitude Altitude Speed Heading
2026-04-26 05:47 6.92055 122.06184 66 ft 0 kts 155°
2026-04-26 05:52 6.92054 122.06184 65 ft 0 kts 155°
2026-04-26 05:53 6.92053 122.06185 65 ft 0 kts 155°
2026-04-26 05:53 6.92049 122.06187 65 ft 0 kts 156°
2026-04-26 05:53 6.92047 122.06188 65 ft 0 kts 156°
2026-04-26 05:54 6.92046 122.06188 66 ft 0 kts 156°
2026-04-26 05:55 6.92042 122.06192 65 ft 0 kts 121°
2026-04-26 05:55 6.92044 122.06200 65 ft 1 kts 54°
2026-04-26 05:55 6.92061 122.06212 65 ft 3 kts 32°
2026-04-26 05:55 6.92088 122.06229 66 ft 5 kts 33°
2026-04-26 05:56 6.92123 122.06248 66 ft 6 kts 14°
2026-04-26 05:56 6.92169 122.06252 66 ft 7 kts
2026-04-26 05:56 6.92213 122.06265 66 ft 7 kts 64°
2026-04-26 05:56 6.92220 122.06318 66 ft 8 kts 95°
2026-04-26 05:57 6.92214 122.06381 66 ft 9 kts 95°
2026-04-26 05:57 6.92210 122.06451 65 ft 10 kts 93°
2026-04-26 05:57 6.92205 122.06529 65 ft 11 kts 93°
2026-04-26 05:57 6.92200 122.06612 65 ft 12 kts 94°
2026-04-26 05:58 6.92194 122.06702 65 ft 13 kts 94°
2026-04-26 05:58 6.92188 122.06795 65 ft 13 kts 94°
2026-04-26 05:58 6.92181 122.06894 65 ft 14 kts 94°
2026-04-26 05:58 6.92174 122.06995 65 ft 14 kts 93°
2026-04-26 05:59 6.92175 122.07066 65 ft 7 kts 69°
2026-04-26 05:59 6.92181 122.07103 65 ft 4 kts 139°
2026-04-26 05:59 6.92168 122.07084 65 ft 5 kts 277°
2026-04-26 05:59 6.92169 122.07068 65 ft 2 kts 275°
2026-04-26 06:00 6.92170 122.07064 65 ft 0 kts 274°
2026-04-26 06:00 6.92177 122.06955 65 ft 47 kts 274°
2026-04-26 06:00 6.92216 122.06370 66 ft 115 kts 273°
2026-04-26 06:00 6.92284 122.05370 157 ft 160 kts 274°
2026-04-26 06:01 6.92368 122.04288 742 ft 160 kts 274°
2026-04-26 06:01 6.92447 122.03193 1312 ft 163 kts 274°
2026-04-26 06:01 6.92449 122.03169 1324 ft 163 kts 274°
2026-04-26 06:01 6.92522 122.02044 1877 ft 165 kts 274°
2026-04-26 06:02 6.92600 122.00835 2209 ft 179 kts 274°
2026-04-26 06:02 6.92687 121.99510 2535 ft 195 kts 274°
2026-04-26 06:02 6.92782 121.98069 2864 ft 211 kts 274°
2026-04-26 06:02 6.92884 121.96536 3183 ft 229 kts 275°
2026-04-26 06:03 6.93001 121.94824 3452 ft 251 kts 275°
2026-04-26 06:03 6.93447 121.93079 3789 ft 267 kts 302°
2026-04-26 06:03 6.94804 121.91782 4168 ft 275 kts 335°
2026-04-26 06:03 6.96607 121.91118 4920 ft 275 kts 343°
2026-04-26 06:04 6.98457 121.90459 5670 ft 278 kts 342°
2026-04-26 06:04 7.00282 121.89779 6353 ft 282 kts 341°
2026-04-26 06:04 7.02127 121.89085 7027 ft 285 kts 342°
2026-04-26 06:04 7.04035 121.88363 7713 ft 288 kts 342°
2026-04-26 06:05 7.05933 121.87643 8375 ft 291 kts 342°
2026-04-26 06:05 7.07899 121.87076 8971 ft 292 kts 358°
2026-04-26 06:05 7.09912 121.87399 9595 ft 288 kts 26°
2026-04-26 06:05 7.11543 121.88527 10208 ft 286 kts 45°
2026-04-26 06:06 7.13020 121.89983 10603 ft 298 kts 46°
2026-04-26 06:06 7.14538 121.91474 10871 ft 313 kts 46°
2026-04-26 06:06 7.16154 121.93041 11278 ft 323 kts 45°
2026-04-26 06:06 7.17787 121.94611 11850 ft 326 kts 45°
2026-04-26 06:07 7.19430 121.96179 12436 ft 328 kts 45°
2026-04-26 06:07 7.21109 121.97779 12991 ft 331 kts 45°
2026-04-26 06:07 7.22781 121.99371 13543 ft 333 kts 45°
2026-04-26 06:07 7.24478 122.00990 14070 ft 336 kts 45°
2026-04-26 06:08 7.26197 122.02629 14574 ft 339 kts 45°
2026-04-26 06:08 7.27919 122.04271 15075 ft 341 kts 45°
2026-04-26 06:08 7.29660 122.05932 15550 ft 345 kts 45°
2026-04-26 06:08 7.31413 122.07604 16008 ft 348 kts 45°
2026-04-26 06:09 7.33301 122.09158 16440 ft 353 kts 33°
2026-04-26 06:09 7.35598 122.10207 16889 ft 359 kts 18°
2026-04-26 06:09 7.38071 122.10668 17322 ft 363 kts
2026-04-26 06:09 7.40606 122.10952 17760 ft 366 kts
2026-04-26 06:10 7.43151 122.11217 18189 ft 368 kts
2026-04-26 06:10 7.45740 122.11489 18613 ft 371 kts
2026-04-26 06:10 7.48328 122.11764 19055 ft 372 kts
2026-04-26 06:10 7.50994 122.12052 19497 ft 374 kts
2026-04-26 06:11 7.53593 122.12336 19904 ft 375 kts
2026-04-26 06:11 7.56238 122.12627 20318 ft 377 kts
2026-04-26 06:11 7.58884 122.12920 20702 ft 378 kts
2026-04-26 06:11 7.61531 122.13213 21074 ft 380 kts
2026-04-26 06:12 7.64184 122.13507 21432 ft 382 kts
2026-04-26 06:12 7.66861 122.13805 21783 ft 384 kts
2026-04-26 06:12 7.69557 122.14105 22119 ft 386 kts
2026-04-26 06:12 7.72297 122.14408 22467 ft 387 kts
2026-04-26 06:13 7.75039 122.14713 22784 ft 390 kts
2026-04-26 06:13 7.77767 122.15015 23081 ft 393 kts
2026-04-26 06:13 7.80555 122.15324 23392 ft 396 kts
2026-04-26 06:13 7.83338 122.15633 23705 ft 398 kts
2026-04-26 06:14 7.86111 122.15940 24022 ft 400 kts
2026-04-26 06:14 7.88936 122.16254 24343 ft 401 kts
2026-04-26 06:14 7.91771 122.16570 24648 ft 404 kts
2026-04-26 06:14 7.94570 122.16882 24931 ft 406 kts
2026-04-26 06:15 7.97380 122.17195 25218 ft 408 kts
2026-04-26 06:15 8.00251 122.17515 25509 ft 410 kts
2026-04-26 06:15 8.03088 122.17831 25784 ft 413 kts
2026-04-26 06:15 8.05974 122.18151 26064 ft 415 kts
2026-04-26 06:16 8.08854 122.18471 26332 ft 417 kts
2026-04-26 06:16 8.11775 122.18797 26590 ft 420 kts
2026-04-26 06:16 8.14753 122.19128 26851 ft 423 kts
2026-04-26 06:16 8.17701 122.19456 27117 ft 425 kts
2026-04-26 06:17 8.20692 122.19788 27382 ft 427 kts
2026-04-26 06:17 8.23664 122.20119 27647 ft 429 kts
2026-04-26 06:17 8.26686 122.20456 27900 ft 431 kts
2026-04-26 06:17 8.29731 122.20795 28143 ft 433 kts
2026-04-26 06:18 8.32751 122.21132 28382 ft 436 kts
2026-04-26 06:18 8.35818 122.21473 28630 ft 438 kts
2026-04-26 06:18 8.38905 122.21817 28876 ft 440 kts
2026-04-26 06:18 8.42002 122.22163 29104 ft 442 kts
2026-04-26 06:19 8.45083 122.22507 29325 ft 444 kts
2026-04-26 06:19 8.48225 122.22857 29545 ft 447 kts
2026-04-26 06:19 8.51355 122.23207 29773 ft 449 kts
2026-04-26 06:19 8.54484 122.23555 29988 ft 451 kts
2026-04-26 06:20 8.57614 122.23904 30208 ft 453 kts
2026-04-26 06:20 8.60803 122.24260 30426 ft 455 kts
2026-04-26 06:20 8.63941 122.24610 30641 ft 457 kts
2026-04-26 06:20 8.67184 122.24972 30858 ft 459 kts
2026-04-26 06:21 8.70432 122.25333 31059 ft 461 kts
2026-04-26 06:21 8.73632 122.25691 31245 ft 463 kts
2026-04-26 06:21 8.76876 122.26053 31480 ft 464 kts
2026-04-26 06:21 8.80100 122.26413 31836 ft 462 kts
2026-04-26 06:22 8.83352 122.26776 32114 ft 462 kts
2026-04-26 06:22 8.86632 122.27142 32316 ft 464 kts
2026-04-26 06:22 8.89959 122.27512 32512 ft 466 kts
2026-04-26 06:22 8.93218 122.27876 32773 ft 466 kts
2026-04-26 06:23 8.96511 122.28245 33135 ft 465 kts
2026-04-26 06:23 8.99766 122.28610 33510 ft 463 kts
2026-04-26 06:23 9.03000 122.28973 33895 ft 461 kts
2026-04-26 06:23 9.06229 122.29333 34260 ft 460 kts
2026-04-26 06:24 9.09438 122.29693 34617 ft 458 kts
2026-04-26 06:24 9.12611 122.30048 34959 ft 457 kts
2026-04-26 06:24 9.15892 122.30415 35253 ft 456 kts
2026-04-26 06:24 9.19065 122.30770 35479 ft 457 kts
2026-04-26 06:25 9.22241 122.31125 35678 ft 458 kts
2026-04-26 06:25 9.25463 122.31485 35878 ft 459 kts
2026-04-26 06:25 9.28678 122.31844 36083 ft 459 kts
2026-04-26 06:25 9.31898 122.32204 36273 ft 460 kts
2026-04-26 06:26 9.35132 122.32567 36460 ft 460 kts
2026-04-26 06:26 9.38361 122.32928 36621 ft 461 kts
2026-04-26 06:26 9.41579 122.33289 36788 ft 462 kts
2026-04-26 06:27 9.48015 122.34010 36812 ft 463 kts
2026-04-26 06:27 9.54473 122.34734 36812 ft 462 kts
2026-04-26 06:28 9.60869 122.35450 36814 ft 463 kts
2026-04-26 06:28 9.67367 122.36178 36815 ft 463 kts
2026-04-26 06:29 9.73857 122.36906 36821 ft 463 kts
2026-04-26 06:29 9.80368 122.37636 36817 ft 463 kts
2026-04-26 06:30 9.86803 122.38355 36820 ft 463 kts
2026-04-26 06:30 9.93229 122.39074 36822 ft 463 kts
2026-04-26 06:31 9.99707 122.39799 36814 ft 463 kts
2026-04-26 06:31 10.06186 122.40526 36807 ft 462 kts
2026-04-26 06:32 10.12639 122.41251 36806 ft 463 kts
2026-04-26 06:32 10.19101 122.41976 36808 ft 464 kts
2026-04-26 06:33 10.25582 122.42703 36805 ft 463 kts
2026-04-26 06:33 10.32093 122.43432 36814 ft 463 kts
2026-04-26 06:34 10.38590 122.44160 36815 ft 463 kts
2026-04-26 06:34 10.45114 122.44893 36813 ft 463 kts
2026-04-26 06:35 10.51631 122.45627 36812 ft 463 kts
2026-04-26 06:35 10.58034 122.46346 36814 ft 463 kts
2026-04-26 06:36 10.64553 122.47076 36813 ft 463 kts
2026-04-26 06:36 10.71096 122.47812 36814 ft 463 kts
2026-04-26 06:37 10.77632 122.48340 36816 ft 462 kts 359°
2026-04-26 06:37 10.84103 122.47835 36821 ft 460 kts 349°
2026-04-26 06:38 10.90364 122.46231 36829 ft 458 kts 339°
2026-04-26 06:38 10.96340 122.43761 36845 ft 456 kts 335°
2026-04-26 06:39 11.02250 122.41172 36870 ft 457 kts 335°
2026-04-26 06:39 11.08127 122.38615 36886 ft 457 kts 335°
2026-04-26 06:40 11.13990 122.36074 36893 ft 457 kts 335°
2026-04-26 06:40 11.19935 122.33508 36900 ft 457 kts 335°
2026-04-26 06:41 11.25930 122.30919 36902 ft 456 kts 335°
2026-04-26 06:41 11.31816 122.28371 36905 ft 456 kts 335°
2026-04-26 06:42 11.37699 122.25823 36904 ft 455 kts 335°
2026-04-26 06:42 11.43586 122.23270 36894 ft 456 kts 335°
2026-04-26 06:43 11.49441 122.20729 36886 ft 456 kts 335°
2026-04-26 06:43 11.55310 122.18183 36878 ft 456 kts 335°
2026-04-26 06:44 11.61177 122.15636 36864 ft 456 kts 335°
2026-04-26 06:44 11.67056 122.13081 36852 ft 456 kts 335°
2026-04-26 06:45 11.72975 122.10507 36841 ft 455 kts 335°
2026-04-26 06:45 11.78872 122.07941 36832 ft 455 kts 335°
2026-04-26 06:46 11.84736 122.05392 36826 ft 455 kts 335°
2026-04-26 06:46 11.90649 122.02818 36828 ft 455 kts 335°
2026-04-26 06:47 11.96533 122.00256 36821 ft 455 kts 335°
2026-04-26 06:47 12.02415 121.97693 36823 ft 455 kts 335°
2026-04-26 06:48 12.08283 121.95134 36823 ft 454 kts 335°
2026-04-26 06:48 12.14204 121.92549 36823 ft 454 kts 335°
2026-04-26 06:49 12.20051 121.89996 36825 ft 454 kts 335°
2026-04-26 06:49 12.25888 121.87447 36825 ft 454 kts 335°
2026-04-26 06:50 12.31745 121.84885 36828 ft 454 kts 334°
2026-04-26 06:50 12.37580 121.82336 36833 ft 454 kts 335°
2026-04-26 06:51 12.43403 121.79795 36839 ft 454 kts 334°
2026-04-26 06:51 12.52210 121.75945 36841 ft 453 kts 334°
2026-04-26 06:52 12.58060 121.73383 36840 ft 453 kts 334°
2026-04-26 06:52 12.63885 121.70828 36805 ft 453 kts 334°
2026-04-26 06:53 12.66824 121.69537 36252 ft 457 kts 334°
2026-04-26 06:53 12.69791 121.68235 35318 ft 462 kts 334°
2026-04-26 06:53 12.72752 121.66936 34263 ft 468 kts 334°
2026-04-26 06:53 12.75785 121.65603 33330 ft 470 kts 335°
2026-04-26 06:54 12.78828 121.64268 32479 ft 472 kts 335°
2026-04-26 06:54 12.81853 121.62941 31842 ft 469 kts 335°
2026-04-26 06:54 12.84846 121.61628 31398 ft 462 kts 335°
2026-04-26 06:54 12.87773 121.60343 30955 ft 456 kts 335°
2026-04-26 06:55 12.90758 121.59032 30496 ft 450 kts 334°
2026-04-26 06:55 12.93696 121.57741 30029 ft 445 kts 335°
2026-04-26 06:55 12.96584 121.56471 29568 ft 440 kts 334°
2026-04-26 06:55 12.99405 121.55231 29114 ft 435 kts 334°
2026-04-26 06:56 13.02219 121.53992 28652 ft 430 kts 334°
2026-04-26 06:56 13.05028 121.52755 28216 ft 425 kts 334°
2026-04-26 06:56 13.07798 121.51534 27769 ft 421 kts 334°
2026-04-26 06:56 13.10481 121.50352 27326 ft 417 kts 335°
2026-04-26 06:57 13.13189 121.49158 26883 ft 413 kts 335°
2026-04-26 06:57 13.15842 121.47987 26449 ft 409 kts 335°
2026-04-26 06:57 13.18477 121.46826 26018 ft 405 kts 335°
2026-04-26 06:57 13.21105 121.45668 25592 ft 401 kts 335°
2026-04-26 06:58 13.23680 121.44531 25162 ft 397 kts 335°
2026-04-26 06:58 13.26267 121.43391 24725 ft 393 kts 335°
2026-04-26 06:58 13.28772 121.42286 24298 ft 390 kts 335°
2026-04-26 06:58 13.31289 121.41175 23870 ft 387 kts 335°
2026-04-26 06:59 13.33777 121.40076 23429 ft 384 kts 335°
2026-04-26 06:59 13.36236 121.38991 22996 ft 380 kts 335°
2026-04-26 06:59 13.38655 121.37922 22575 ft 377 kts 335°
2026-04-26 06:59 13.41123 121.36832 22142 ft 374 kts 335°
2026-04-26 07:00 13.43501 121.35780 21710 ft 372 kts 335°
2026-04-26 07:00 13.45928 121.34707 21268 ft 370 kts 335°
2026-04-26 07:00 13.48280 121.33667 20840 ft 368 kts 335°
2026-04-26 07:00 13.50631 121.32629 20584 ft 359 kts 335°
2026-04-26 07:01 13.52881 121.31583 20453 ft 347 kts 330°
2026-04-26 07:01 13.54931 121.30167 20274 ft 336 kts 319°
2026-04-26 07:01 13.56620 121.28462 19835 ft 335 kts 311°
2026-04-26 07:01 13.58167 121.26660 19411 ft 335 kts 310°
2026-04-26 07:02 13.59699 121.24849 18980 ft 334 kts 311°
2026-04-26 07:02 13.61495 121.23324 18496 ft 336 kts 329°
2026-04-26 07:02 13.63586 121.22231 17955 ft 339 kts 334°
2026-04-26 07:02 13.65749 121.21196 17453 ft 340 kts 334°
2026-04-26 07:03 13.67891 121.20153 17171 ft 335 kts 333°
2026-04-26 07:03 13.69965 121.19112 16880 ft 330 kts 333°
2026-04-26 07:03 13.72034 121.18051 16574 ft 326 kts 332°
2026-04-26 07:03 13.74042 121.17008 16239 ft 322 kts 332°
2026-04-26 07:04 13.76026 121.15971 15731 ft 317 kts 332°
2026-04-26 07:04 13.77974 121.14945 15052 ft 315 kts 332°
2026-04-26 07:04 13.79945 121.13903 14396 ft 312 kts 332°
2026-04-26 07:04 13.81867 121.12884 13944 ft 307 kts 332°
2026-04-26 07:05 13.83777 121.11869 13529 ft 307 kts 332°
2026-04-26 07:05 13.85674 121.10860 13135 ft 308 kts 332°
2026-04-26 07:05 13.87587 121.09842 12737 ft 308 kts 332°
2026-04-26 07:05 13.89517 121.08814 12328 ft 308 kts 332°
2026-04-26 07:06 13.91457 121.07781 11937 ft 307 kts 332°
2026-04-26 07:06 13.93186 121.06860 11590 ft 306 kts 333°
2026-04-26 07:06 13.95100 121.05840 11216 ft 306 kts 333°
2026-04-26 07:06 13.96281 121.05212 10968 ft 306 kts 333°
2026-04-26 07:07 13.98184 121.04198 10575 ft 306 kts 333°
2026-04-26 07:07 14.00070 121.03194 10190 ft 296 kts 333°
2026-04-26 07:07 14.01883 121.02228 9826 ft 289 kts 333°
2026-04-26 07:07 14.03678 121.01272 9460 ft 288 kts 333°
2026-04-26 07:08 14.05478 121.00312 9100 ft 288 kts 334°
2026-04-26 07:08 14.07293 120.99345 8719 ft 289 kts 334°
2026-04-26 07:08 14.09024 120.98422 8363 ft 289 kts 333°
2026-04-26 07:08 14.10858 120.97443 7989 ft 289 kts 333°
2026-04-26 07:09 14.12653 120.96484 7616 ft 290 kts 334°
2026-04-26 07:09 14.14441 120.95531 7244 ft 281 kts 334°
2026-04-26 07:09 14.16150 120.94617 6893 ft 271 kts 334°
2026-04-26 07:09 14.17834 120.93718 6566 ft 267 kts 334°
2026-04-26 07:10 14.22837 120.91048 5564 ft 267 kts 334°
2026-04-26 07:11 14.26034 120.89340 5453 ft 242 kts 334°
2026-04-26 07:11 14.27502 120.88553 5393 ft 230 kts 333°
2026-04-26 07:11 14.28917 120.87744 5176 ft 229 kts 333°
2026-04-26 07:11 14.30332 120.86927 4861 ft 231 kts 332°
2026-04-26 07:12 14.31739 120.86114 4564 ft 232 kts 332°
2026-04-26 07:12 14.33170 120.85283 4268 ft 234 kts 332°
2026-04-26 07:12 14.34602 120.84453 3964 ft 235 kts 332°
2026-04-26 07:12 14.36051 120.83614 3677 ft 237 kts 332°
2026-04-26 07:13 14.37524 120.82810 3358 ft 238 kts 343°
2026-04-26 07:13 14.39146 120.82677 3030 ft 235 kts 15°
2026-04-26 07:13 14.40543 120.83453 2898 ft 222 kts 49°
2026-04-26 07:13 14.41408 120.84708 2937 ft 211 kts 62°
2026-04-26 07:14 14.42090 120.86023 2882 ft 198 kts 64°
2026-04-26 07:14 14.42729 120.87274 2649 ft 193 kts 63°
2026-04-26 07:14 14.43351 120.88439 2458 ft 178 kts 62°
2026-04-26 07:14 14.43949 120.89523 2231 ft 164 kts 62°
2026-04-26 07:15 14.44505 120.90519 2021 ft 154 kts 62°
2026-04-26 07:15 14.45039 120.91475 1839 ft 154 kts 63°
2026-04-26 07:15 14.45584 120.92454 1656 ft 154 kts 63°
2026-04-26 07:15 14.46112 120.93401 1459 ft 148 kts 63°
2026-04-26 07:16 14.46617 120.94308 1282 ft 146 kts 63°
2026-04-26 07:16 14.47125 120.95222 1099 ft 145 kts 63°
2026-04-26 07:16 14.47622 120.96116 925 ft 144 kts 63°
2026-04-26 07:16 14.48115 120.97006 740 ft 143 kts 62°
2026-04-26 07:17 14.48612 120.97898 559 ft 143 kts 62°
2026-04-26 07:17 14.49114 120.98793 380 ft 142 kts 62°
2026-04-26 07:17 14.49604 120.99677 213 ft 143 kts 64°
2026-04-26 07:17 14.50094 121.00568 85 ft 137 kts 63°
2026-04-26 07:18 14.50541 121.01375 267 ft 133 kts 61°
2026-04-26 07:18 14.51011 121.02222 807 ft 141 kts 63°
2026-04-26 07:18 14.51522 121.03146 1367 ft 156 kts 63°
2026-04-26 07:18 14.52075 121.04107 2105 ft 156 kts 61°
2026-04-26 07:19 14.52682 121.05033 2493 ft 159 kts 62°
2026-04-26 07:19 14.52917 121.06146 2735 ft 168 kts 102°
2026-04-26 07:19 14.52363 121.07170 2977 ft 179 kts 131°
2026-04-26 07:19 14.51423 121.08112 3252 ft 193 kts 136°
2026-04-26 07:20 14.50420 121.09028 3496 ft 209 kts 137°
2026-04-26 07:20 14.49149 121.09854 3746 ft 228 kts 161°
2026-04-26 07:20 14.47504 121.09920 3901 ft 239 kts 194°
2026-04-26 07:20 14.46055 121.09100 3977 ft 242 kts 224°
2026-04-26 07:21 14.44923 121.07786 3984 ft 241 kts 227°
2026-04-26 07:21 14.43785 121.06517 3983 ft 241 kts 226°
2026-04-26 07:21 14.42634 121.05260 3985 ft 241 kts 226°
2026-04-26 07:21 14.41496 121.04016 3987 ft 241 kts 226°
2026-04-26 07:22 14.40341 121.02746 3991 ft 241 kts 226°
2026-04-26 07:22 14.39208 121.01495 3993 ft 241 kts 226°
2026-04-26 07:22 14.38094 121.00262 3995 ft 242 kts 226°
2026-04-26 07:22 14.36924 120.98965 3999 ft 241 kts 226°
2026-04-26 07:23 14.35786 120.97702 3999 ft 241 kts 226°
2026-04-26 07:23 14.34641 120.96432 3998 ft 241 kts 226°
2026-04-26 07:23 14.33498 120.95164 4000 ft 241 kts 226°
2026-04-26 07:23 14.32345 120.93885 4002 ft 242 kts 226°
2026-04-26 07:24 14.31205 120.92622 4007 ft 242 kts 226°
2026-04-26 07:24 14.30058 120.91351 4003 ft 242 kts 226°
2026-04-26 07:24 14.29123 120.89947 3957 ft 236 kts 253°
2026-04-26 07:24 14.29135 120.88293 3775 ft 229 kts 290°
2026-04-26 07:25 14.30027 120.86990 3463 ft 225 kts 321°
2026-04-26 07:25 14.31396 120.86166 3101 ft 228 kts 334°
2026-04-26 07:25 14.32814 120.85408 2995 ft 229 kts 334°
2026-04-26 07:25 14.34189 120.84654 2989 ft 230 kts 334°
2026-04-26 07:26 14.35574 120.83875 2979 ft 218 kts 333°
2026-04-26 07:26 14.36851 120.83144 2956 ft 200 kts 332°
2026-04-26 07:26 14.38048 120.82543 2921 ft 180 kts 347°
2026-04-26 07:26 14.39229 120.82531 2909 ft 160 kts 21°
2026-04-26 07:27 14.40133 120.83136 2956 ft 156 kts 48°
2026-04-26 07:27 14.40810 120.84005 2968 ft 155 kts 57°
2026-04-26 07:27 14.41395 120.84940 2989 ft 152 kts 60°
2026-04-26 07:27 14.41936 120.85871 2948 ft 148 kts 62°
2026-04-26 07:28 14.42450 120.86784 2779 ft 147 kts 63°
2026-04-26 07:28 14.42952 120.87686 2599 ft 145 kts 62°
2026-04-26 07:28 14.43454 120.88592 2415 ft 144 kts 62°
2026-04-26 07:28 14.43953 120.89493 2228 ft 144 kts 62°
2026-04-26 07:29 14.44452 120.90391 2051 ft 144 kts 63°
2026-04-26 07:29 14.44946 120.91285 1878 ft 144 kts 63°
2026-04-26 07:29 14.45444 120.92183 1700 ft 144 kts 63°
2026-04-26 07:29 14.45945 120.93086 1517 ft 144 kts 63°
2026-04-26 07:30 14.46439 120.93978 1341 ft 143 kts 63°
2026-04-26 07:30 14.46940 120.94882 1164 ft 143 kts 63°
2026-04-26 07:30 14.47432 120.95768 986 ft 143 kts 62°
2026-04-26 07:30 14.47926 120.96658 807 ft 142 kts 63°
2026-04-26 07:31 14.48425 120.97554 631 ft 143 kts 64°
2026-04-26 07:31 14.48915 120.98438 437 ft 142 kts 63°
2026-04-26 07:31 14.49404 120.99328 278 ft 143 kts 63°
2026-04-26 07:31 14.49894 121.00210 120 ft 140 kts 61°
2026-04-26 07:33 14.50852 121.01784 81 ft 5 kts 25°
2026-04-26 07:33 14.50894 121.01780 81 ft 6 kts 323°
2026-04-26 07:33 14.50932 121.01744 81 ft 7 kts 317°
2026-04-26 07:33 14.50962 121.01698 81 ft 7 kts 266°
2026-04-26 07:34 14.50937 121.01651 81 ft 6 kts 237°
2026-04-26 07:34 14.50943 121.01611 81 ft 7 kts 317°
2026-04-26 07:34 14.50983 121.01574 82 ft 8 kts 317°
2026-04-26 07:34 14.51022 121.01530 81 ft 7 kts 281°
2026-04-26 07:35 14.51005 121.01472 81 ft 8 kts 251°
2026-04-26 07:35 14.50998 121.01449 82 ft 0 kts 251°
2026-04-26 07:35 14.50996 121.01442 82 ft 0 kts 251°